Content
SEND FEEDBACK

Daily
Averages
Monthly
Summary
United States of America

VERNON, VERMONT


Home > North America > United States > Vermont
Elevation: 238 feet     Latitude: 42 46N     Longitude: 072 31W

WEATHER
 
SELECT A DAY
Number of Records: 445,156;   Date Range: 1/1/95 - 7/20/14
 
SHARE

PRINT THIS DATA

[ ← Previous Day ]
WEATHER ALMANAC - JULY 4, 2014
[ Next Day → ]
[ °C ]   °F
Weather ElementAverageHighLow
Temperature66.4 °F69.8 °F (10:55 am)60.8 °F (11:55 pm)
Dewpoint57.1 °F59 °F (12:35 am)51.8 °F (10:35 pm)
Humidity72.1 %78 % (1:15 am)64 % (12:15 pm)
Barometer29.97 in30.04 in (7:55 am)29.90 in (10:55 pm)
Wind Speed4 mph12.7 mph (6:55 pm)
Wind Gust25.3 mph (8:15 pm)
Weather ElementAverage
Visibility9.5 mi
Wind DirectionSE (135.5 °)

Weather ElementTotal
Precipitation0.84 in
Cooling Degree Days0.3 (Base 65)
Growing Degree Days15.3 (Base 50)
Averaged from 71 records on July 4, 2014
WEATHER CONDITIONS BREAKOUT
WIND DIRECTION BREAKOUT
WEATHER BY HOUR - JULY 4, 2014
[ °C ]   °F
Local TimeTemperatureDewpointHumidityBarometerVisibilityWind DirectionWind SpeedGust SpeedPrecipitationEventsConditions
12:35 AM68.0 °F59.0 °F73 %29.95 in10.0 miCalm0.01 inClear
12:55 AM68.0 °F59.0 °F73 %29.94 in9.0 miCalm0.01 inClear
1:15 AM66.2 °F59.0 °F78 %29.95 in9.0 miCalmPartly Cloudy
1:35 AM66.2 °F59.0 °F78 %29.96 in8.0 miSSW (200°)3.5 mphClear
1:55 AM66.2 °F59.0 °F78 %29.96 in9.0 miCalmPartly Cloudy
2:15 AM66.2 °F59.0 °F78 %29.96 in8.0 miCalmPartly Cloudy
2:35 AM66.2 °F57.2 °F73 %29.95 in10.0 miCalmScattered Clouds
2:55 AM66.2 °F57.2 °F73 %29.95 in10.0 miCalmMostly Cloudy
3:15 AM66.2 °F57.2 °F73 %29.96 in10.0 miSouth (170°)3.5 mphOvercast
3:35 AM66.2 °F59.0 °F78 %29.97 in9.0 miCalmOvercast
3:55 AM66.2 °F59.0 °F78 %29.97 in10.0 miCalmOvercast
4:15 AM66.2 °F57.2 °F73 %29.97 in10.0 miCalmOvercast
4:35 AM66.2 °F57.2 °F73 %29.97 in10.0 miSouth (170°)6.9 mphOvercast
4:55 AM66.2 °F57.2 °F73 %29.99 in10.0 miSSW (200°)3.5 mphOvercast
5:15 AM66.2 °F59.0 °F78 %29.99 in10.0 miCalmOvercast
5:35 AM66.2 °F59.0 °F78 %29.99 in10.0 miSouth (180°)5.8 mphOvercast
5:55 AM66.2 °F59.0 °F78 %30.01 in10.0 miCalmOvercast
6:15 AM66.2 °F59.0 °F78 %30.01 in10.0 miCalmOvercast
6:35 AM66.2 °F59.0 °F78 %30.00 in9.0 miCalmOvercast
6:55 AM66.2 °F59.0 °F78 %29.99 in10.0 miSouth (180°)5.8 mphMostly Cloudy
7:15 AM68.0 °F59.0 °F73 %30.00 in10.0 miCalmMostly Cloudy
7:35 AM68.0 °F59.0 °F73 %30.03 in8.0 miWSW (250°)5.8 mph0.01 inMostly Cloudy
7:55 AM66.2 °F59.0 °F78 %30.04 in7.0 miSSW (210°)3.5 mph0.09 inOvercast
8:15 AM66.2 °F59.0 °F78 %30.03 in7.0 miSouth (170°)3.5 mph0.07 inOvercast
8:35 AM68.0 °F59.0 °F73 %30.02 in10.0 miCalm0.09 inOvercast
8:55 AM68.0 °F59.0 °F73 %30.02 in10.0 miSouth (180°)8.1 mph0.10 inMostly Cloudy
9:15 AM68.0 °F59.0 °F73 %30.02 in10.0 miSSW (200°)4.6 mph0.01 inMostly Cloudy
9:35 AM68.0 °F59.0 °F73 %30.02 in10.0 miSSW (200°)4.6 mph0.01 inMostly Cloudy
9:55 AM68.0 °F57.2 °F68 %30.01 in10.0 miCalm0.01 inScattered Clouds
10:15 AM68.0 °F57.2 °F68 %30.01 in10.0 miSouth (180°)3.5 mphMostly Cloudy
10:35 AM68.0 °F57.2 °F68 %30.01 in10.0 miCalmScattered Clouds
10:55 AM69.8 °F59.0 °F68 %30.01 in10.0 miCalmMostly Cloudy
11:15 AM69.8 °F59.0 °F68 %29.99 in10.0 miCalmMostly Cloudy
11:35 AM69.8 °F59.0 °F68 %30.00 in10.0 miSW (230°)4.6 mphMostly Cloudy
11:55 AM69.8 °F59.0 °F68 %30.00 in10.0 miCalmOvercast
12:15 PM69.8 °F57.2 °F64 %29.99 in10.0 miNW (320°)5.8 mphOvercast
12:35 PM69.8 °F57.2 °F64 %30.00 in10.0 miNNW (330°)4.6 mphOvercast
12:55 PM68.0 °F57.2 °F68 %30.01 in10.0 miCalmMostly Cloudy
1:15 PM68.0 °F57.2 °F68 %30.01 in10.0 miCalmMostly Cloudy
1:35 PM66.2 °F57.2 °F73 %30.01 in5.0 miCalm0.04 inMostly Cloudy
1:55 PM66.2 °F57.2 °F73 %30.01 in5.0 miCalm0.07 inOvercast
2:15 PM66.2 °F57.2 °F73 %29.99 in5.0 miCalm0.03 inOvercast
2:35 PM66.2 °F57.2 °F73 %29.97 in9.0 miCalm0.04 inScattered Clouds
2:55 PM68.0 °F57.2 °F68 %29.96 in10.0 miCalm0.05 inMostly Cloudy
3:15 PM68.0 °F57.2 °F68 %29.96 in10.0 miWest (280°)3.5 mphMostly Cloudy
3:35 PM68.0 °F57.2 °F68 %29.95 in10.0 miCalm0.01 inScattered Clouds
3:55 PM68.0 °F57.2 °F68 %29.97 in10.0 miWest (260°)5.8 mph0.01 inMostly Cloudy
4:15 PM68.0 °F57.2 °F68 %29.96 in10.0 miCalmScattered Clouds
4:35 PM68.0 °F59.0 °F73 %29.95 in10.0 miCalmScattered Clouds
4:55 PM68.0 °F59.0 °F73 %29.94 in10.0 miNorth (350°)5.8 mphScattered Clouds
5:15 PM68.0 °F59.0 °F73 %29.93 in10.0 miCalmMostly Cloudy
5:35 PM68.0 °F59.0 °F73 %29.93 in10.0 miNNW (340°)4.6 mphOvercast
5:55 PM68.0 °F57.2 °F68 %29.93 in10.0 miNorth (360°)4.6 mphOvercast
6:15 PM68.0 °F57.2 °F68 %29.92 in10.0 miNorth (350°)11.5 mphOvercast
6:35 PM66.2 °F57.2 °F73 %29.92 in10.0 miNorth (360°)11.5 mphOvercast
6:55 PM66.2 °F57.2 °F73 %29.93 in10.0 miNNW (340°)12.7 mph17.3 mphMostly Cloudy
7:15 PM64.4 °F55.4 °F73 %29.94 in10.0 miNorth (350°)10.4 mph0.01 inOvercast
7:35 PM64.4 °F55.4 °F73 %29.93 in10.0 miNorth (10°)12.7 mph0.01 inOvercast
7:55 PM64.4 °F53.6 °F68 %29.91 in10.0 miNorth (350°)11.5 mph21.9 mph0.01 inMostly Cloudy
8:15 PM62.6 °F53.6 °F72 %29.92 in10.0 miNorth (350°)12.7 mph25.3 mphOvercast
8:35 PM62.6 °F53.6 °F72 %29.91 in10.0 miNNE (20°)12.7 mphOvercast
8:55 PM62.6 °F53.6 °F72 %29.93 in10.0 miNNW (340°)6.9 mphOvercast
9:15 PM62.6 °F53.6 °F72 %29.91 in7.0 miNNE (30°)8.1 mph0.03 inOvercast
9:35 PM62.6 °F53.6 °F72 %29.93 in10.0 miNNW (340°)6.9 mph0.05 inOvercast
9:55 PM62.6 °F53.6 °F72 %29.91 in10.0 miNorth (360°)10.4 mph20.7 mph0.07 inMostly Cloudy
10:15 PM62.6 °F53.6 °F72 %29.91 in10.0 miNorth (360°)12.7 mphOvercast
10:35 PM62.6 °F51.8 °F68 %29.91 in10.0 miNorth (360°)8.1 mphOvercast
10:55 PM62.6 °F51.8 °F68 %29.90 in10.0 miNNE (20°)12.7 mph17.3 mphOvercast
11:15 PM62.6 °F51.8 °F68 %29.91 in10.0 miNorth (10°)6.9 mphOvercast
11:35 PM62.6 °F51.8 °F68 %29.91 in10.0 miNorth (360°)5.8 mphOvercast
11:55 PM60.8 °F51.8 °F72 %29.90 in10.0 miNorth (350°)4.6 mphOvercast
Hourly data recorded from KEEN, located miles away from Vernon, Vermont







STORIES FROM OUR PARTNERS